Terminal Aerodrome Forecast
Issued by NWS Tampa Bay Area, FL

Home | Current Version | Previous Version | Text Only | Print | Product List | Glossary On
Versions: 1 2 3 4 5 6 7 8 9 10 11 12 13 14 15 16 17 18 19
000
FTUS42 KTBW 120100 AAA
TAFFMY
TAF AMD
KFMY 120129Z 1201/1224 VRB04KT P6SM VCSH SCT060 BKN250
     FM120300 VRB03KT P6SM BKN250
     FM121800 10006KT P6SM VCTS SCT040CB=

USA.gov is the U.S. government's official web portal to all federal, state and local government web resources and services.